{"data":{"norad_id":59360,"intl_designator":"2024-060N","name":"STARLINK-31549","alt_names":[],"object_type":"PAYLOAD","status":"ACTIVE","operator":null,"country":"US","launch_date":"2024-03-31","launch_site_code":"AFETR","launch_vehicle":null,"mission":null,"orbit_class":"UNKNOWN","rcs_meters":null,"size_class":null,"mass_kg":null,"dimensions":null,"purposes":["comms"],"wikipedia_slug":null,"has_3d_model":false,"image_url":null,"decayed_at":null,"tle_current":{"epoch":"2026-05-24T20:21:52.488288Z","epoch_age_seconds":84642,"freshness":"FRESH","line1":"1 59360U 24060N   26144.84852417  .00000161  00000+0  15395-4 0  9995","line2":"2 59360  43.0032 189.4718 0001423 272.5487  87.5201 15.27575893121717","mean_motion":15.27575893,"eccentricity":0.0001423,"inclination_deg":43.0032,"raan_deg":189.4718,"arg_perigee_deg":272.5487,"mean_anomaly_deg":87.5201,"bstar":1.5395e-5,"rev_number":12171,"period_min":94.26700215673,"perigee_km":482.08504537124,"apogee_km":484.03774243414,"semimajor_km":6861.1983939027,"source":"CELESTRAK","updated_at":"2026-05-25T13:38:18.910713Z"}}}